RH
99 99 97 94 92 85 71 63 60 47 42 64 79 71 74 89 85 70 67 63 45 46 59 54 46 46 38 28 20 13 11 13 14 12 7 7 12 14 12 13 16 18 18 18 17 17 23 35 45 48 48 47 43 38 36 33 36 55 72 65 52 51 57 60 55 48 45 37 26 24 25 31 44 49 48 50 54 63 70 64 64 72 75 74 82 94 94
100 99 98 95 89 82 76 71 67 54 42 53 70 75 81 85 78 72 72 60 44 54 68 60 54 51 37 28 22 16 14 14 16 17 10 8 13 15 13 13 15 17 15 14 16 18 26 38 43 44 48 46 38 34 34 35 41 50 60 65 58 53 61 69 66 64 67 64 56 50 47 51 60 59 54 54 53 59 65 64 72 80 73 71 85 95 95
100 100 98 94 85 79 79 75 68 59 50 45 56 77 88 86 79 73 68 58 56 69 73 65 65 60 43 36 29 19 17 18 19 20 14 11 14 17 18 16 13 13 15 17 15 13 22 34 37 41 47 43 35 33 34 38 47 48 48 52 53 55 63 68 70 73 78 83 82 75 70 68 65 60 56 55 58 66 70 70 81 86 74 75 89 95 96
99 100 96 88 81 77 75 73 65 61 55 42 49 78 92 90 85 72 62 60 63 71 67 61 69 65 48 43 36 25 24 21 16 18 18 16 15 17 20 18 15 17 22 27 22 15 20 26 28 35 44 42 36 34 35 39 43 44 41 40 46 58 63 60 64 69 72 80 78 69 71 73 67 64 60 60 66 71 74 82 91 90 84 90 95 92 96
98 98 88 75 72 72 69 66 62 63 59 43 50 79 90 91 87 70 64 68 67 68 62 53 61 58 45 44 37 28 28 23 18 19 20 18 16 19 19 16 19 23 27 35 33 25 30 34 32 35 38 37 34 32 32 35 41 44 40 39 49 67 71 64 65 64 56 56 54 48 58 65 65 72 76 73 75 76 82 91 91 86 87 95 95 90 95
97 87 72 63 66 69 65 64 66 67 58 46 63 90 89 84 82 66 61 70 70 70 62 51 54 49 37 39 36 31 30 26 23 20 17 17 18 25 28 19 15 19 23 35 38 32 43 54 49 44 39 34 36 37 32 31 39 46 46 48 58 73 77 70 75 74 55 46 44 43 55 63 64 75 82 81 81 82 88 91 85 85 93 97 95 93 97
92 69 56 59 65 66 64 67 72 69 58 56 79 97 89 82 82 68 62 69 67 60 48 44 52 46 36 39 38 34 35 31 25 19 20 25 19 21 34 28 16 14 16 31 44 46 58 66 53 44 43 40 42 46 42 36 38 48 61 62 57 65 69 60 66 71 56 52 60 58 63 72 72 73 76 79 85 85 87 90 85 86 93 95 95 97 99
83 56 53 63 64 65 65 68 74 73 68 68 75 83 84 88 87 75 73 77 67 50 36 36 46 40 34 40 35 29 34 34 26 19 28 42 31 20 31 31 21 19 19 31 47 51 60 64 51 44 48 45 41 44 45 40 37 47 63 65 56 57 59 50 53 60 56 61 71 68 69 77 81 83 78 77 84 88 88 90 89 88 92 93 95 99 100
68 50 57 63 62 66 65 66 76 77 76 81 82 84 87 87 82 79 88 89 65 40 32 34 40 38 36 40 35 29 31 30 26 22 24 33 32 24 28 32 29 29 31 36 41 39 42 47 40 36 39 35 33 37 38 35 39 44 49 55 57 56 55 54 55 61 64 67 70 70 72 77 85 94 92 85 87 91 91 91 92 94 94 93 94 99 101
54 49 60 62 63 68 64 64 72 76 86 95 91 88 87 85 83 82 90 89 58 32 34 36 36 37 35 32 30 30 30 23 25 30 22 16 22 24 26 33 40 44 44 40 34 27 27 29 26 25 26 22 21 26 25 24 31 35 39 49 53 48 55 63 63 65 72 73 75 79 78 82 92 98 95 91 88 89 90 90 89 91 92 95 99 100 97
47 53 61 61 65 67 62 61 65 72 88 93 81 76 81 88 94 85 82 81 54 30 34 38 35 35 28 22 23 27 30 28 29 35 31 21 20 21 20 27 44 53 44 31 26 23 22 23 22 21 21 21 19 18 16 16 17 19 30 47 52 49 58 65 59 66 80 79 77 82 84 91 98 91 83 83 84 87 93 93 88 87 88 93 95 93 91
47 56 59 61 67 65 58 57 59 63 76 81 75 76 78 85 95 85 76 77 56 31 32 35 31 28 23 19 22 23 27 33 33 34 36 33 26 21 18 26 44 47 32 23 24 23 21 22 22 21 20 20 19 16 17 23 24 21 27 43 57 60 63 61 56 62 77 77 71 80 94 98 92 81 76 75 75 79 87 89 84 81 84 89 90 88 88
49 57 59 63 66 62 54 52 54 56 61 66 65 68 74 82 89 82 73 75 63 39 33 30 20 19 23 23 23 22 22 25 26 26 31 34 30 23 20 25 35 32 23 22 22 21 27 32 30 29 25 19 17 21 27 35 38 35 33 39 54 61 62 64 60 55 65 76 77 84 97 95 83 78 78 76 75 79 85 91 90 81 79 88 92 88 85
52 56 59 64 63 58 51 48 49 48 49 52 52 59 72 78 83 81 72 73 69 46 34 34 28 27 31 27 22 23 22 20 21 23 26 29 28 24 21 23 25 23 22 24 23 27 39 41 35 36 38 39 44 45 43 43 44 44 42 40 46 55 60 66 64 55 67 89 96 96 97 93 89 90 85 80 83 84 86 94 96 84 76 82 89 88 87
54 55 59 63 60 53 47 45 47 44 43 48 52 58 64 64 70 72 63 68 76 58 38 37 36 32 32 26 21 27 32 31 29 25 21 19 21 23 21 19 22 23 21 25 31 37 43 44 47 56 63 69 71 60 47 47 47 45 46 47 52 57 58 62 65 66 78 93 97 98 99 97 98 96 84 78 79 78 79 88 96 91 81 82 88 89 92
54 56 59 60 56 48 42 43 47 44 44 51 56 57 54 51 54 51 44 56 70 58 36 28 26 25 25 21 18 27 36 39 37 34 30 23 18 21 21 20 24 26 22 28 39 46 53 61 65 69 70 70 71 61 50 54 56 50 45 47 57 65 66 67 70 70 77 86 89 92 97 99 98 95 86 81 78 74 78 90 98 96 89 87 90 91 94
53 55 58 58 53 45 39 40 44 47 50 55 59 57 48 42 40 38 42 51 49 36 28 25 24 26 27 24 24 26 27 29 30 35 39 31 19 17 20 21 24 25 24 35 48 56 65 71 70 70 67 59 60 61 58 62 70 68 59 56 63 75 83 81 75 69 75 87 91 93 97 98 96 92 88 83 78 77 86 98 101 97 92 91 93 95 97
52 54 57 55 49 41 35 32 35 46 55 57 56 49 38 33 34 40 51 51 35 26 26 25 28 32 29 27 27 23 21 27 32 36 38 30 19 18 21 23 27 28 27 38 55 66 71 68 63 69 67 52 51 62 64 69 78 76 71 72 76 84 87 82 80 82 84 89 96 99 99 95 92 91 88 84 84 88 96 101 99 96 96 95 96 98 98
52 53 55 53 44 36 31 27 31 46 55 54 50 41 31 31 34 40 45 37 25 24 24 22 28 33 29 26 27 25 26 34 44 52 53 40 22 17 20 23 30 36 36 44 57 67 74 69 54 58 70 63 56 64 70 74 79 76 75 80 87 94 90 81 87 95 89 85 93 100 98 92 91 91 86 83 90 98 100 98 95 96 98 98 99 100 98
51 52 53 50 41 36 31 26 33 47 51 48 42 34 30 34 35 34 36 29 22 25 25 23 29 33 31 30 30 33 38 41 45 57 64 49 27 25 39 47 48 47 49 58 66 65 74 79 60 52 68 73 65 68 75 77 77 77 79 83 88 93 92 88 93 94 86 84 88 92 95 94 91 89 88 88 95 99 97 96 96 97 99 99 100 101 98
50 51 51 46 41 41 38 31 35 44 45 42 38 32 33 37 33 30 31 29 25 25 25 25 26 28 30 29 27 32 42 45 46 53 59 49 33 39 60 66 59 52 49 60 72 67 70 84 75 58 60 67 69 74 78 81 81 76 75 83 88 88 90 95 97 92 88 92 94 94 98 97 89 89 94 95 95 93 92 95 98 98 100 99 98 100 100
48 49 50 44 38 42 44 41 41 43 44 44 42 37 35 36 32 29 28 25 23 24 23 22 22 23 24 25 25 28 33 38 42 46 49 46 37 39 49 48 44 43 41 49 67 71 71 77 76 66 63 66 72 74 72 81 91 82 76 86 91 86 85 90 95 95 94 97 99 96 96 94 89 89 91 90 89 89 91 95 97 98 98 97 97 100 100
46 48 48 41 35 36 38 41 44 45 45 44 42 38 35 32 29 27 25 23 24 24 23 22 22 21 22 23 24 26 28 32 38 40 42 44 43 43 45 42 40 39 36 40 53 68 77 71 56 54 60 59 66 77 79 86 96 91 88 92 86 76 73 78 90 99 97 95 95 92 90 90 88 88 89 88 89 90 91 93 95 95 96 97 99 99 97
45 47 45 38 33 29 30 37 45 47 46 41 36 34 33 31 28 27 28 28 27 25 25 22 19 19 22 24 24 25 26 29 34 38 40 42 44 47 46 42 39 35 33 34 35 44 57 51 37 44 54 47 55 78 87 90 94 91 92 96 86 69 65 74 88 96 94 95 95 88 84 86 85 85 88 89 89 90 92 94 95 96 98 99 97 94 90
45 46 42 37 32 27 27 36 44 45 43 39 35 36 37 36 34 32 32 30 26 27 32 29 20 18 22 22 23 24 25 27 31 36 38 35 35 40 38 33 33 33 30 31 30 28 34 36 35 45 50 42 51 71 78 82 87 85 89 99 88 66 60 71 80 83 87 92 88 77 74 77 77 81 86 86 87 89 88 89 93 93 92 90 86 81 78
43 43 40 37 33 27 28 36 43 44 42 40 43 47 47 45 43 38 34 30 23 24 33 32 22 19 21 21 23 24 23 26 30 33 35 34 32 34 31 25 29 31 26 25 26 22 26 35 41 49 50 44 46 56 59 62 70 73 78 82 71 58 60 66 68 74 82 81 70 64 70 74 73 77 82 82 83 82 79 81 84 82 81 83 82 75 68
41 41 38 35 33 30 33 41 45 44 43 43 46 48 46 45 45 41 39 37 31 27 32 30 22 20 21 20 22 24 23 26 29 31 34 34 31 31 29 24 24 26 24 25 25 22 28 39 43 47 48 43 41 46 47 47 53 61 65 59 52 55 62 63 66 77 81 69 57 58 69 75 75 76 79 81 80 79 78 80 79 76 78 83 83 77 71
41 39 35 33 32 33 40 48 47 43 43 44 43 44 45 44 42 40 40 41 36 30 28 25 20 22 24 22 22 24 24 25 26 27 29 29 27 27 26 23 23 24 25 29 31 32 39 44 41 40 42 43 46 50 47 45 52 59 58 50 48 52 55 57 66 73 68 57 50 50 55 63 69 72 74 77 77 77 77 77 75 75 76 77 76 75 75
41 34 31 32 33 33 38 45 44 40 41 43 41 41 44 42 39 39 39 36 31 25 24 27 29 29 26 25 25 25 26 26 26 26 25 25 25 26 24 23 25 27 27 30 34 37 41 40 36 38 42 43 48 52 52 56 63 62 52 45 44 46 47 49 54 56 52 49 47 45 46 51 58 63 66 67 68 69 69 69 69 70 71 72 71 71 72
32 26 27 32 35 32 30 33 35 35 40 46 42 37 37 37 36 37 35 32 30 28 29 35 40 35 26 25 27 27 28 29 27 26 25 24 23 24 23 23 24 25 26 28 30 32 33 29 28 32 34 34 41 50 55 60 62 54 45 43 43 44 45 45 46 47 47 46 43 41 40 40 42 47 51 52 53 56 59 62 64 65 65 66 65 64 65
22 22 26 32 35 33 29 26 27 32 41 48 47 43 42 39 34 32 32 31 33 33 31 32 36 31 25 25 26 26 28 29 28 29 28 25 23 23 21 21 22 24 25 26 25 27 30 29 30 32 31 31 38 47 53 60 63 56 46 42 42 43 43 43 43 44 43 41 40 39 37 35 35 36 37 38 41 42 46 51 55 57 58 57 56 57 58
19 19 22 25 28 31 32 27 26 32 39 42 44 49 49 40 31 29 31 32 32 29 27 30 34 32 29 28 25 24 27 28 28 29 28 25 23 23 21 21 24 25 25 26 28 29 30 31 33 36 35 33 37 45 55 66 68 57 44 41 42 42 41 42 42 41 40 39 39 39 39 37 36 35 34 35 37 37 37 39 39 41 44 43 44 47 46
17 17 18 21 22 25 29 28 27 33 37 34 32 35 34 29 28 30 31 33 32 28 24 28 33 33 31 30 27 27 29 29 26 27 28 25 22 21 21 22 24 25 26 29 31 31 29 29 33 38 36 33 36 47 58 62 56 46 41 41 41 39 39 40 40 40 40 40 38 38 38 36 34 34 35 34 34 34 34 34 33 34 35 35 36 38 38
16 15 17 19 20 22 24 24 28 39 47 43 34 27 25 27 31 32 31 31 30 26 23 26 33 35 34 33 33 32 32 29 27 29 29 27 23 23 23 23 22 24 28 28 28 30 29 26 31 39 39 34 38 50 56 52 42 39 40 40 39 39 40 40 38 36 37 37 36 34 34 34 33 33 33 32 32 32 32 32 32 33 33 34 35 35 36
15 15 15 18 23 26 25 27 35 47 56 52 36 24 24 29 31 32 33 32 33 32 26 22 30 40 43 42 40 35 29 26 27 29 29 29 26 23 21 22 25 30 30 25 25 32 32 27 31 41 41 36 41 50 51 44 38 36 38 37 37 36 36 34 34 34 33 34 34 33 33 35 34 32 32 33 32 32 32 31 31 33 34 35 36 36 37
15 15 17 21 30 37 40 43 48 52 53 48 34 23 24 29 31 33 35 35 39 42 33 23 29 42 49 47 39 30 26 26 26 25 25 28 28 21 19 28 35 31 24 23 29 36 32 27 34 44 43 40 43 43 39 38 38 36 36 36 34 32 31 31 32 33 32 33 35 34 34 35 34 32 33 33 31 31 32 31 32 34 35 36 37 37 38
17 16 18 26 38 46 49 52 52 48 42 35 27 23 25 28 30 33 32 31 35 36 32 30 33 35 36 37 31 26 27 29 26 24 25 26 25 21 22 32 37 30 25 30 35 34 27 26 35 48 48 43 40 34 29 31 34 31 31 34 32 30 32 32 31 33 34 33 35 35 34 33 33 32 32 32 32 32 33 33 33 34 35 37 39 39 39
18 20 28 40 50 51 48 47 46 39 31 26 23 24 27 30 31 30 27 27 31 29 27 32 33 25 26 34 34 31 32 29 24 26 27 25 23 23 24 28 31 30 34 37 32 26 27 32 41 51 49 38 33 32 29 30 32 30 30 33 32 31 32 32 32 33 33 31 33 35 33 31 31 31 31 32 32 32 32 32 34 34 36 38 40 39 41
25 35 50 60 60 52 43 39 36 31 27 28 31 32 31 32 34 31 23 22 27 27 27 32 31 23 27 40 43 37 34 31 29 31 31 27 27 27 28 30 29 30 38 41 31 28 38 44 47 53 50 38 33 35 32 30 31 32 31 30 30 31 33 34 33 33 33 32 33 35 34 32 31 31 32 33 32 32 32 32 33 35 36 38 40 40 43
48 60 65 62 53 42 33 29 30 33 35 37 37 35 32 31 32 30 26 26 28 28 29 32 30 22 24 36 42 39 35 34 35 35 34 32 28 24 26 30 28 30 42 45 33 30 41 47 47 53 53 42 34 34 33 32 34 34 31 30 30 33 36 35 33 32 32 31 31 32 32 32 31 32 33 33 33 33 33 32 33 35 36 39 43 44 45
68 69 63 53 42 34 28 29 36 41 39 36 34 31 30 31 28 24 26 33 36 31 27 28 29 26 24 28 34 34 32 30 27 26 29 31 26 23 28 30 24 28 41 42 30 30 40 45 49 55 53 42 34 33 34 34 34 33 33 34 34 35 35 32 30 30 30 30 31 32 33 34 34 34 35 34 33 34 33 33 34 36 38 41 45 46 47
62 57 51 42 34 31 31 37 43 40 32 30 32 30 30 33 31 26 27 32 33 32 31 30 30 29 27 27 28 29 28 27 22 21 28 31 25 23 29 29 25 31 38 34 27 32 38 42 50 55 47 36 33 34 34 34 35 35 36 34 33 33 32 30 31 33 34 34 35 36 35 35 36 36 36 36 35 34 34 34 35 37 39 41 43 45 48
51 49 44 37 33 33 36 37 35 32 30 34 38 38 35 33 30 29 30 28 25 29 34 33 29 28 29 28 27 27 27 26 22 21 26 29 25 23 27 30 31 35 33 27 28 35 38 44 54 55 42 33 34 36 35 36 36 36 35 32 31 33 34 32 33 35 35 36 37 36 34 36 37 36 36 36 34 34 35 36 37 38 40 42 45 48 51
48 46 41 35 31 33 37 36 31 31 35 38 39 42 44 40 34 34 36 33 28 31 34 31 29 33 35 30 27 28 27 24 22 22 23 25 25 26 29 33 36 33 28 28 34 38 38 44 49 44 35 32 34 34 34 36 36 36 36 35 34 35 36 35 36 37 37 38 38 37 36 37 38 36 36 36 36 37 38 38 39 42 44 46 49 52 55
48 41 38 39 36 33 38 40 35 32 35 35 35 40 45 45 43 40 36 29 26 28 30 28 27 31 32 27 26 28 26 23 24 26 23 23 27 29 30 34 35 32 32 35 36 37 42 48 45 37 33 34 33 32 34 36 35 36 37 36 35 36 36 36 38 38 38 39 39 38 38 39 38 37 37 37 37 38 39 39 42 44 46 48 51 55 58
52 37 32 41 42 34 34 38 38 35 33 31 31 32 34 35 34 30 26 23 23 25 28 27 26 28 28 26 26 26 22 21 26 26 22 25 33 33 28 28 31 32 36 38 37 40 50 52 42 33 32 33 32 33 35 35 34 35 36 36 36 37 37 37 38 38 38 39 40 40 39 40 39 38 39 39 39 39 40 41 44 47 49 52 56 60 61
53 33 26 35 39 33 31 34 35 31 26 22 22 25 25 24 23 23 23 24 24 25 26 26 26 28 27 25 27 28 23 22 27 27 24 29 38 35 28 29 32 34 37 39 39 43 50 47 36 31 32 33 32 33 34 34 34 35 36 37 38 38 38 39 40 39 40 41 42 42 41 41 40 40 40 39 39 40 41 44 47 50 52 54 57 60 62
50 33 29 34 35 33 33 34 30 24 21 20 22 24 24 23 24 26 26 24 23 25 27 26 26 29 28 26 29 33 27 24 30 32 28 30 36 36 35 36 36 33 35 38 40 44 45 39 32 31 32 31 32 34 34 34 35 36 36 38 39 38 40 41 41 41 42 43 42 43 43 42 42 41 39 39 40 42 44 46 47 47 49 51 54 57 59
51 37 31 30 28 24 23 26 26 24 22 22 23 24 24 25 26 26 25 24 25 28 27 24 26 32 32 28 31 36 32 29 34 36 32 33 38 41 40 41 39 36 35 37 39 40 39 33 30 32 32 31 32 34 34 34 36 36 37 39 40 39 41 42 42 43 44 43 43 45 46 44 43 42 40 40 43 44 44 45 46 47 49 52 53 55 57
46 35 28 29 32 28 21 21 28 31 26 20 20 24 27 28 28 27 27 27 26 26 25 24 26 30 30 29 34 38 35 31 32 35 37 39 40 37 36 40 42 41 38 35 34 35 34 31 31 34 33 31 33 34 34 35 36 36 37 40 41 41 42 43 43 45 46 44 44 45 44 42 43 43 42 43 43 40 38 42 47 49 49 50 51 52 56
39 34 29 29 33 31 26 26 32 35 29 21 20 25 28 30 29 29 28 27 26 27 28 27 26 29 33 35 37 36 32 28 32 38 40 38 34 35 41 47 47 42 37 34 32 32 32 32 32 34 33 33 35 37 36 37 38 38 39 40 41 41 42 43 44 46 46 45 45 45 43 43 44 44 43 42 42 40 39 43 47 49 49 50 50 51 56
35 34 32 28 25 25 25 25 25 25 23 21 23 27 29 29 30 30 29 28 29 31 29 25 26 34 40 38 33 31 31 31 34 39 39 32 28 33 43 46 40 34 32 33 33 33 33 33 32 33 34 35 38 39 39 38 38 39 40 41 41 42 43 44 44 45 45 45 44 44 43 43 44 42 40 40 42 44 46 48 49 50 52 52 51 52 56
Wind_Speed
11 10 9 7 7 7 7 6 7 4 2 1 4 3 3 1 4 6 9 9 12 11 2 4 5 3 8 13 6 2 2 2 2 2 1 1 2 2 1 2 4 5 5 5 6 7 4 5 7 2 3 6 4 7 11 10 8 5 1 2 3 2 2 3 3 4 3 6 8 10 10 8 6 5 4 5 3 1 4 4 2 1 2 1 4 2 2
10 9 8 7 6 7 7 6 6 4 2 2 6 4 2 2 6 5 8 9 11 7 2 2 4 4 9 10 4 5 4 2 2 3 1 1 1 1 2 3 3 3 4 4 5 6 4 5 6 3 4 4 6 8 13 12 7 4 2 1 2 2 2 3 3 3 5 6 7 7 8 6 3 3 4 5 5 4 2 1 3 3 2 0 4 2 2
8 8 7 7 6 6 7 7 6 4 2 3 7 4 2 1 3 4 8 10 9 7 5 3 2 4 6 5 2 1 2 3 7 9 4 3 5 3 2 5 2 2 6 6 5 5 4 4 5 6 5 1 4 10 14 12 8 6 7 6 3 3 2 3 4 2 1 1 2 1 2 4 2 2 3 4 7 6 3 2 4 2 2 2 3 3 3
8 7 7 6 6 6 6 6 6 4 1 4 8 5 1 1 1 2 6 9 9 9 10 6 4 5 2 3 3 2 1 2 6 10 6 6 9 5 3 7 5 4 8 7 5 5 6 4 2 5 5 2 3 11 13 11 9 7 8 10 6 3 2 2 5 4 4 4 4 3 3 1 2 4 6 6 7 6 4 4 2 2 1 3 2 3 6
8 7 6 5 5 6 7 7 6 4 1 5 8 5 1 1 2 1 4 4 6 8 10 7 4 5 2 1 3 2 2 1 3 5 5 6 9 5 1 3 3 4 5 3 4 5 9 9 7 4 5 4 6 11 12 10 8 6 7 9 5 3 3 3 3 2 0 4 4 4 4 4 5 5 8 10 8 8 8 5 1 2 3 1 1 2 6
9 7 4 3 4 6 7 7 6 3 4 9 8 5 2 1 4 5 1 3 3 4 7 6 4 7 5 1 4 0 4 3 2 2 5 3 5 3 1 2 4 1 3 3 1 3 6 7 7 6 5 4 5 7 7 8 9 8 8 8 4 3 1 2 4 3 5 2 1 4 8 9 10 10 10 10 10 11 10 7 4 4 5 3 3 7 7
9 6 3 4 6 7 8 7 5 2 8 11 9 5 1 3 5 7 6 4 4 8 8 5 5 6 3 3 4 1 5 4 3 1 2 1 1 2 2 3 6 5 2 5 2 2 4 3 4 4 4 3 3 4 4 6 10 9 5 4 4 3 0 1 4 1 4 2 4 6 11 12 12 12 11 11 12 11 10 9 9 9 8 7 9 11 10
8 4 3 5 6 7 8 6 3 4 9 10 7 3 0 2 4 7 10 10 9 12 9 5 5 1 3 3 2 1 4 3 3 3 3 1 1 3 1 3 6 5 6 7 4 5 6 5 2 1 1 3 3 3 2 3 6 6 2 1 3 3 0 1 4 2 2 7 10 10 13 14 13 13 11 10 10 10 10 10 9 8 7 8 9 9 8
6 2 3 5 6 8 8 6 4 6 9 9 5 2 3 4 5 7 6 5 7 7 5 3 3 3 2 1 1 1 3 2 2 5 6 4 4 5 4 5 7 8 12 11 6 7 8 6 2 2 2 3 3 2 2 3 4 3 2 2 1 2 1 2 3 4 3 6 11 11 11 13 13 11 12 10 8 8 8 9 8 7 4 6 7 5 3
4 2 4 5 7 8 8 5 4 6 8 8 5 3 3 3 6 5 3 3 5 3 3 3 3 2 1 1 1 2 3 4 5 5 5 7 9 9 8 8 6 7 11 10 8 10 12 9 7 8 8 9 8 6 4 3 4 1 1 3 2 3 4 2 3 4 1 3 8 8 6 7 6 6 7 7 6 9 9 10 11 9 6 4 4 4 4
2 2 4 6 7 7 7 5 3 6 7 6 6 4 0 6 9 7 2 2 5 4 3 3 3 3 2 4 4 3 5 6 6 5 4 5 9 10 8 7 6 5 6 7 9 11 11 8 7 7 8 10 10 7 6 3 3 4 2 3 1 3 5 2 3 3 1 1 6 6 4 4 2 2 5 4 8 11 10 10 11 11 7 5 6 6 7
2 3 5 6 7 7 5 5 3 4 5 4 4 3 4 8 10 9 5 2 3 2 3 3 2 3 4 7 6 7 9 8 8 11 7 5 6 8 7 7 6 3 6 8 8 7 7 5 4 3 3 6 8 7 4 4 3 6 10 8 3 4 5 1 2 3 2 2 4 5 3 2 3 3 6 6 11 13 12 11 12 12 9 8 9 9 9
2 3 5 6 7 7 5 4 3 3 5 4 2 3 6 9 10 11 8 3 2 3 4 4 5 8 9 8 6 8 12 12 12 12 7 5 4 4 6 8 6 3 6 7 6 5 3 3 2 2 3 5 6 1 7 12 12 13 16 12 5 4 3 1 1 1 2 2 3 3 3 3 4 5 6 6 5 6 8 9 11 11 9 7 7 8 10
3 3 6 6 7 6 4 3 3 3 4 3 2 2 4 8 11 12 11 5 2 7 9 5 6 9 8 6 6 8 9 10 9 7 5 6 6 3 7 11 8 5 5 4 4 3 1 1 1 1 2 1 1 2 5 9 10 11 11 9 7 5 3 2 2 1 3 4 3 4 5 2 3 4 4 4 3 2 2 4 6 8 9 7 5 6 8
4 4 6 7 7 6 4 4 3 3 4 4 2 2 3 8 10 10 10 6 3 7 11 8 6 6 5 5 5 4 4 4 3 2 2 3 3 3 6 9 6 4 2 2 3 1 2 1 2 2 3 3 2 2 3 3 6 9 8 6 5 5 3 3 2 1 3 4 4 3 3 2 2 3 5 7 6 3 0 2 3 6 11 10 6 5 7
5 5 6 7 7 6 5 4 4 5 5 5 4 2 1 6 8 8 9 6 2 2 8 9 9 7 4 4 3 2 2 3 3 3 2 1 2 6 5 6 4 4 2 4 1 2 3 3 2 2 2 1 1 1 2 1 2 6 9 7 7 6 5 4 4 1 2 4 3 2 1 1 2 3 6 10 9 4 0 2 2 4 9 10 7 5 5
5 6 6 7 7 6 6 6 6 7 7 6 4 3 2 4 7 8 9 7 3 6 10 13 15 13 6 4 4 4 4 2 1 3 3 3 5 11 8 4 4 3 2 4 3 4 4 3 3 3 2 1 0 0 2 2 2 5 8 7 7 6 5 4 4 1 2 4 3 2 2 2 2 4 8 12 9 2 1 1 1 4 8 8 6 6 6
6 6 6 7 7 6 7 7 7 8 8 6 5 5 5 7 8 9 9 6 3 7 11 12 15 15 10 5 4 4 5 4 3 1 1 2 5 8 8 6 4 1 2 3 4 4 4 3 2 3 1 2 2 2 2 2 2 3 5 4 5 4 3 3 4 3 3 4 4 2 2 1 3 6 9 11 6 2 2 1 2 6 8 7 8 9 8
6 5 6 7 7 7 7 8 9 9 8 6 5 7 8 10 12 12 10 8 8 9 9 9 11 13 13 12 12 11 9 9 8 5 2 2 2 4 7 8 6 4 4 5 4 3 3 2 1 3 3 3 3 2 3 3 2 3 3 3 4 3 3 3 3 2 3 3 3 3 3 1 7 9 8 7 3 2 2 4 7 10 10 11 13 15 17
6 5 6 7 8 8 8 9 9 9 8 6 7 9 10 11 13 12 10 13 16 16 16 15 13 13 14 16 17 16 14 13 12 7 1 2 5 5 6 5 5 5 5 5 3 2 2 1 1 2 3 2 2 2 2 4 4 4 3 3 3 2 1 3 3 1 1 3 3 3 2 5 12 8 4 6 4 5 9 11 12 12 13 15 18 19 21
6 5 6 7 8 8 8 9 9 9 9 8 9 10 11 12 14 11 8 11 15 15 13 14 14 14 13 13 13 13 13 13 12 7 5 7 10 6 3 2 1 2 2 3 2 1 1 1 1 2 3 1 0 1 2 3 4 6 5 3 2 3 2 2 0 2 1 2 3 2 1 5 12 10 6 8 9 12 15 15 14 13 15 17 18 18 18
6 6 6 7 8 8 8 10 9 9 9 9 10 10 10 12 13 10 7 10 15 14 12 13 15 15 14 13 11 9 10 13 13 12 11 12 12 11 8 3 3 4 2 2 3 1 1 2 1 2 3 2 2 3 3 2 2 4 5 3 3 4 5 6 4 3 4 4 3 4 7 12 18 19 16 17 17 16 16 17 16 15 16 18 18 17 16
6 6 6 7 8 8 8 9 10 10 9 9 10 11 10 10 10 9 9 13 16 15 13 12 13 13 13 13 12 10 10 12 13 14 14 12 10 12 11 8 7 7 5 5 6 4 3 2 3 3 3 3 3 4 5 4 2 2 3 3 2 5 7 7 5 5 8 10 9 11 15 19 20 20 19 19 18 16 17 18 17 16 16 16 15 16 16
6 6 6 7 7 7 7 8 10 10 9 9 12 13 10 8 10 11 11 12 13 13 11 11 13 13 11 11 11 11 11 13 13 14 15 11 8 8 10 9 6 5 6 4 4 5 5 3 3 4 4 4 4 3 4 4 1 1 3 2 2 4 7 5 3 4 4 5 7 11 16 19 20 20 20 18 17 17 17 17 17 16 15 14 15 16 16
6 6 6 7 6 6 7 8 10 12 12 12 13 12 8 7 9 10 9 9 11 11 8 7 10 11 9 10 11 11 11 12 13 13 15 16 15 12 10 11 9 8 9 6 4 7 8 5 3 4 5 5 5 3 4 4 2 3 3 0 1 5 9 7 4 4 4 5 10 15 19 20 20 20 19 19 20 20 19 18 17 16 15 15 15 15 15
7 6 6 7 6 6 7 9 10 12 13 13 11 8 7 7 7 8 9 10 12 12 7 4 8 10 9 10 11 11 10 11 11 12 13 15 15 12 9 10 11 12 17 18 18 17 13 6 3 4 3 5 7 4 3 5 4 3 3 3 5 7 7 6 6 7 6 7 12 16 16 15 17 19 19 20 22 21 20 19 18 17 17 16 14 13 13
7 6 6 7 6 7 9 11 11 11 11 11 10 10 8 6 6 8 9 9 9 8 3 3 9 12 12 12 11 9 10 10 10 12 12 12 13 14 12 11 12 14 19 22 22 20 15 9 6 5 6 10 12 8 6 7 7 4 4 6 9 9 6 5 6 6 4 5 10 12 10 8 13 18 19 19 20 20 20 19 17 16 15 14 13 12 11
7 6 6 7 7 8 10 12 12 11 11 11 12 13 10 6 6 8 8 7 8 9 7 8 12 12 11 12 11 9 9 10 10 11 12 11 13 16 17 16 16 17 20 19 16 12 8 6 6 6 7 11 11 8 8 10 8 4 4 7 10 9 8 7 7 6 7 12 16 16 13 13 17 20 20 19 19 19 18 17 15 14 14 13 13 13 11
7 7 7 8 8 9 10 11 11 11 11 10 10 11 9 6 5 7 9 11 14 16 14 11 9 7 8 10 11 10 10 11 11 11 12 12 14 16 18 20 20 21 23 21 16 10 7 8 10 10 9 10 7 4 5 7 5 5 9 15 18 17 18 19 18 14 14 19 20 18 16 17 19 21 20 19 18 18 17 15 13 12 12 12 11 11 9
7 7 8 9 9 8 9 10 10 9 8 7 7 8 6 5 6 8 12 14 15 14 12 9 5 5 8 10 11 11 11 11 12 14 14 14 15 15 16 19 21 22 22 19 15 11 8 8 11 13 15 15 10 3 2 5 4 6 14 22 25 24 24 25 23 19 18 20 20 18 18 18 19 19 18 16 15 14 13 12 12 12 13 12 11 9 8
7 8 9 9 9 9 8 8 8 6 4 3 4 5 4 4 6 8 11 12 11 11 13 12 7 5 6 8 9 11 11 11 13 15 16 17 17 17 17 19 20 20 19 17 15 12 8 7 9 13 18 21 14 4 3 5 4 5 15 23 26 26 27 26 23 22 21 20 18 16 15 15 16 17 16 14 12 12 12 12 12 12 12 11 9 9 9
7 8 8 8 8 8 8 7 6 5 6 6 5 6 6 7 8 9 10 10 11 14 15 11 5 2 2 3 7 10 11 11 12 13 14 17 19 20 20 21 20 20 20 18 14 10 10 14 15 15 19 22 16 5 3 5 4 7 17 23 22 23 23 22 20 20 19 17 16 16 16 16 15 15 14 13 13 13 14 13 12 12 11 9 9 9 9
7 7 7 8 8 8 8 7 5 5 6 7 7 8 10 11 9 7 7 8 9 11 11 7 2 2 2 1 4 7 7 7 10 12 12 13 15 17 17 17 17 18 17 15 11 8 13 18 18 15 17 19 14 5 3 5 9 15 21 22 20 19 19 19 19 18 18 17 16 15 15 15 14 12 12 13 12 11 11 10 10 11 10 9 9 8 7
7 7 7 7 7 7 7 8 7 7 7 6 5 6 9 12 10 6 5 6 6 6 6 5 3 2 1 0 2 4 1 3 8 9 8 9 11 12 12 12 12 12 12 13 13 12 12 15 15 12 12 14 11 6 3 7 14 20 20 19 19 19 18 18 18 17 17 17 17 16 15 15 13 11 11 11 9 8 7 7 7 9 9 9 8 6 4
7 8 8 8 9 9 9 9 7 5 4 4 3 5 8 11 9 6 4 5 3 1 3 6 5 3 1 1 2 2 1 3 8 10 9 8 8 8 9 8 6 5 8 12 13 10 7 10 12 9 7 8 6 3 4 10 17 20 18 16 17 17 16 17 18 17 15 15 15 15 15 13 11 8 8 9 8 7 6 6 6 7 8 7 6 6 7
8 9 10 11 11 10 9 7 4 2 3 4 4 5 7 9 8 4 3 4 5 5 1 4 4 4 3 2 2 2 3 6 10 10 9 7 6 6 8 6 3 3 7 9 7 5 6 9 9 4 2 3 4 5 12 19 21 20 18 16 15 16 17 16 16 16 15 14 14 15 16 14 11 9 8 8 8 6 5 6 7 7 8 8 6 6 7
10 12 13 13 11 8 7 5 3 4 5 6 6 7 9 9 6 4 3 3 3 4 3 1 2 5 7 6 4 3 4 5 6 5 4 5 5 6 7 5 2 2 5 6 4 4 6 8 6 3 2 5 9 13 18 20 20 18 17 17 18 19 17 15 14 15 15 14 14 16 16 14 11 9 9 9 8 6 5 6 5 5 6 7 8 7 7
13 15 15 11 6 5 4 3 3 5 8 9 9 9 8 6 3 2 1 2 4 3 1 2 1 9 12 9 4 3 3 4 4 3 3 4 4 3 4 4 1 1 3 3 2 4 6 5 3 4 5 11 16 17 17 18 18 15 14 17 19 18 14 13 13 13 14 12 10 11 13 12 10 8 8 8 7 6 4 3 4 5 5 4 4 3 3
17 15 11 6 3 3 2 2 4 8 11 10 7 5 4 2 0 0 1 2 2 1 0 2 2 12 14 7 3 3 3 3 4 3 2 2 2 0 1 2 1 1 3 1 1 3 4 2 2 3 4 7 14 18 19 19 17 13 12 16 18 16 13 12 12 12 12 12 11 10 10 11 9 7 5 5 6 5 4 4 5 5 3 2 6 5 2
10 6 4 3 4 4 3 5 9 11 10 6 2 0 1 1 1 1 1 1 2 1 3 3 7 15 16 10 5 4 3 2 3 5 4 3 2 1 2 1 1 2 2 0 1 3 3 1 3 3 2 4 11 17 18 17 16 14 13 13 13 14 15 14 12 12 12 11 8 6 7 8 8 5 4 4 4 4 4 4 4 3 3 4 7 7 5
4 2 2 4 6 6 7 10 10 7 3 1 0 0 1 0 1 1 1 0 0 1 1 1 5 11 13 11 8 4 4 4 6 9 7 3 2 2 2 1 2 3 1 2 4 4 3 2 2 1 4 10 14 15 14 13 13 13 12 10 9 12 13 11 9 8 9 10 10 9 9 8 7 6 4 3 3 4 3 2 3 4 4 4 4 4 3
6 6 8 9 10 10 11 9 4 1 1 1 1 1 0 0 0 0 0 1 1 2 1 2 5 10 11 11 9 6 5 6 7 8 5 1 1 2 2 1 2 2 1 4 6 3 2 3 2 3 8 17 18 14 13 13 12 12 11 9 8 8 9 9 8 9 10 11 12 10 8 6 5 4 4 3 3 4 4 3 3 3 3 3 5 4 3
9 10 11 11 11 10 7 3 1 0 1 2 2 1 0 1 0 1 0 1 2 2 4 7 11 12 11 10 9 7 6 6 5 5 3 1 1 1 2 1 1 1 2 4 4 2 3 3 2 5 14 21 21 18 17 16 14 13 12 10 8 9 10 11 10 9 7 7 8 8 8 6 3 3 3 2 1 2 3 3 4 3 3 4 5 5 4
9 9 8 8 7 6 3 1 0 1 1 0 1 1 1 1 2 2 2 2 3 4 8 10 10 8 7 7 6 5 4 4 4 3 3 2 1 1 2 1 0 1 2 2 1 1 2 2 4 13 22 24 21 20 20 18 17 15 12 9 9 10 10 9 8 6 5 5 5 6 5 3 1 2 2 2 1 2 3 4 3 3 3 3 3 4 5
7 6 5 3 2 2 1 1 1 1 1 1 2 2 3 3 4 4 6 8 8 9 12 13 12 10 10 8 5 3 2 3 3 2 1 2 1 1 1 2 1 1 1 0 1 2 2 2 7 18 25 24 22 21 20 19 18 16 12 9 9 8 6 7 8 7 6 7 6 4 3 2 1 1 2 3 2 2 3 4 4 5 6 6 6 5 5
4 4 4 3 1 1 1 1 1 2 1 3 5 6 7 8 7 6 9 12 12 13 14 13 14 16 12 6 3 4 4 3 3 2 1 2 2 0 1 1 2 2 0 1 2 3 3 4 12 21 24 25 25 23 21 19 17 15 12 12 10 7 6 6 6 5 4 5 4 3 2 1 1 2 2 3 3 3 4 4 4 6 7 7 6 5 5
2 5 5 2 1 2 2 2 5 5 5 9 12 11 8 9 11 11 13 13 11 12 15 16 17 15 10 3 2 4 4 2 2 1 1 2 2 1 2 1 1 1 1 2 3 2 4 10 19 24 25 27 27 23 20 19 17 15 14 14 11 8 6 5 3 3 3 2 2 2 1 1 2 2 2 3 4 4 3 3 3 4 5 6 6 5 5
2 4 4 1 1 2 3 5 7 10 13 14 11 7 10 13 13 13 14 14 13 15 20 20 14 9 6 3 2 2 3 3 2 2 2 2 1 1 1 1 1 1 1 3 2 3 8 16 23 26 27 28 26 21 20 20 18 15 14 14 12 9 7 6 4 4 2 1 2 2 0 2 1 2 2 4 3 2 3 4 4 5 7 7 6 5 5
2 3 3 2 2 4 8 10 9 10 13 12 10 12 12 14 17 16 15 15 14 15 19 19 12 5 3 3 2 2 3 2 1 0 1 2 2 1 1 0 1 2 2 2 3 10 18 23 27 28 28 26 22 19 19 20 18 14 13 13 11 9 8 6 4 3 1 1 1 1 2 4 2 1 3 4 4 5 6 5 5 6 5 5 4 4 5
3 4 4 4 4 5 9 11 8 5 4 3 9 12 13 16 19 16 11 10 11 13 14 13 7 3 3 3 2 1 1 1 1 1 1 2 1 2 1 1 2 4 4 2 10 21 27 28 28 29 27 23 21 19 18 17 15 11 9 9 8 6 5 4 3 3 1 1 2 2 3 3 1 1 3 4 5 6 6 5 5 4 4 5 5 6 7
3 3 5 8 9 8 8 9 6 3 1 2 3 12 18 18 16 11 8 8 10 10 8 5 3 1 3 2 1 1 2 3 3 2 2 2 1 1 2 2 4 4 3 12 22 29 30 29 30 29 26 23 21 20 18 16 13 10 7 6 6 5 5 4 3 3 2 2 2 3 3 2 0 1 4 5 5 6 8 9 7 5 6 6 6 7 5
3 3 5 9 13 13 13 13 8 7 9 6 5 15 21 18 13 10 9 8 6 4 3 4 3 2 2 2 2 2 2 3 2 2 2 2 2 3 5 6 6 7 18 26 27 27 27 28 29 28 25 23 21 18 16 14 12 9 8 8 7 6 5 4 4 4 4 3 2 3 3 3 2 3 5 5 4 5 7 7 4 2 4 4 6 8 6
Wind_Direction
322 320 325 335 338 336 337 337 340 346 328 201 179 163 106 173 244 162 159 196 182 160 175 260 218 233 263 262 266 49 21 0 0 0 123 226 328 17 346 357 17 14 1 348 18 33 40 78 79 70 61 58 8 350 16 40 66 73 66 309 347 16 70 48 341 305 341 358 358 6 17 45 63 36 36 58 40 51 133 158 183 61 13 29 83 97 240
327 333 337 335 333 335 338 343 344 345 344 192 179 163 71 269 250 200 169 185 187 181 245 245 216 256 263 266 306 22 355 343 354 338 283 224 14 31 326 10 66 24 354 0 14 20 45 90 88 84 77 32 341 14 45 50 45 40 38 331 319 358 56 73 46 354 354 357 354 4 15 26 38 355 8 49 42 25 57 84 73 67 0 49 112 126 207
332 338 336 328 335 340 341 349 345 343 353 195 177 152 37 289 252 213 177 184 202 229 264 275 291 283 271 283 303 298 329 24 16 359 356 26 32 57 331 341 8 27 12 13 3 13 57 106 115 106 96 8 358 47 59 57 55 55 33 15 36 98 87 95 103 110 167 304 306 300 341 347 351 330 344 34 45 42 57 62 61 68 335 19 97 140 157
328 332 330 326 342 345 344 354 343 332 334 190 173 146 59 0 267 192 169 190 220 245 264 272 285 278 290 350 300 234 99 54 22 6 12 35 22 20 357 340 342 37 31 14 351 5 29 30 83 121 122 157 76 73 74 70 70 73 40 17 26 94 71 81 122 139 167 184 210 191 156 69 326 328 357 28 41 46 75 90 98 148 86 27 31 141 127
326 329 330 331 352 355 354 356 338 327 137 170 166 151 106 21 319 217 156 199 240 260 269 260 253 259 201 82 284 218 106 68 46 7 353 31 21 355 305 352 9 70 70 28 344 5 25 19 8 45 91 117 106 91 87 78 68 70 51 28 32 90 51 43 82 56 242 178 182 165 120 61 43 43 36 38 41 49 64 73 118 146 110 75 323 71 94
329 328 333 349 7 7 2 357 343 345 149 158 149 132 137 326 316 304 234 207 210 236 261 248 238 245 207 138 317 160 115 87 73 357 321 18 38 358 336 16 354 13 121 119 13 23 44 31 9 17 46 82 97 84 77 78 74 62 44 34 55 103 81 63 76 354 311 287 194 123 93 62 54 63 59 50 45 49 58 51 34 68 98 126 95 70 75
334 330 352 18 18 17 10 3 2 74 150 153 136 112 163 253 302 323 344 331 245 217 220 204 202 231 187 85 322 311 104 106 146 164 334 345 71 35 12 323 307 294 135 120 106 57 70 53 14 14 15 18 76 83 57 73 85 77 47 23 50 80 112 109 101 317 295 24 50 72 86 75 55 47 50 59 56 50 55 43 29 50 79 97 95 85 79
343 346 26 28 26 26 17 13 42 117 141 144 135 125 217 308 320 338 352 338 279 236 215 182 170 163 56 67 282 324 88 122 181 135 90 67 50 46 15 306 313 339 59 78 91 107 118 129 121 94 35 25 60 107 101 92 100 100 106 28 35 71 126 93 95 70 24 81 85 80 85 83 63 38 28 48 60 50 48 44 28 36 68 87 89 84 76
350 21 48 35 35 35 25 28 78 121 136 135 130 194 275 317 325 319 323 309 268 230 189 145 123 81 43 226 226 99 136 147 73 78 79 73 59 32 13 8 359 22 52 53 51 74 86 89 47 338 31 35 32 107 156 163 137 125 128 113 58 96 65 7 72 87 39 80 99 100 92 84 69 39 12 22 57 60 50 52 39 22 49 91 84 71 75
8 58 58 44 39 40 34 35 88 133 143 137 138 202 253 348 358 326 248 251 287 258 166 139 109 97 158 183 136 144 136 88 68 68 32 35 54 40 23 35 34 40 53 41 15 27 43 44 13 354 356 353 350 359 3 50 102 120 103 105 116 110 95 41 69 97 44 72 104 113 97 76 63 30 356 2 63 77 61 53 42 22 21 77 81 72 88
48 76 56 47 42 44 43 39 84 152 159 142 139 166 165 32 14 342 275 254 288 259 171 117 119 173 164 81 55 40 58 56 69 83 18 7 57 52 23 37 68 60 33 15 6 15 24 21 1 351 344 332 328 324 312 304 175 177 135 108 126 97 107 141 112 104 243 152 113 108 76 71 81 0 345 20 84 84 70 55 43 30 31 69 90 89 87
99 84 53 49 45 45 50 47 72 168 181 164 136 115 46 32 13 341 320 290 281 260 121 111 141 161 116 85 61 46 57 59 62 68 46 359 54 63 26 30 77 70 4 6 13 13 10 356 324 306 290 281 275 269 296 351 34 65 63 65 91 87 80 113 118 119 180 175 111 90 66 110 132 49 23 64 93 91 83 68 47 35 38 63 83 92 94
107 78 52 48 47 47 53 58 75 157 181 200 175 83 41 31 20 355 344 333 298 8 64 112 109 88 89 96 84 60 60 61 55 53 43 12 31 73 61 57 74 53 10 8 6 5 1 332 289 245 234 230 230 257 49 48 38 36 44 47 59 90 92 82 56 120 127 80 49 80 111 127 105 61 36 53 77 79 76 64 43 33 32 47 73 92 104
118 83 58 46 46 52 56 69 95 139 163 195 199 102 54 37 26 -0 346 338 316 5 25 60 85 71 68 76 85 79 70 66 56 42 36 28 14 31 69 69 70 58 33 351 328 356 44 319 354 16 329 339 52 6 37 56 49 39 37 35 43 62 86 85 39 28 97 85 62 101 129 124 58 40 24 33 30 8 61 70 48 29 24 36 64 80 92
122 82 62 48 50 60 66 81 105 118 136 155 142 112 67 39 23 343 328 327 313 6 26 47 72 71 70 69 77 96 102 100 99 83 70 50 29 55 60 50 55 79 60 301 293 26 89 55 55 51 12 25 42 327 334 50 59 43 28 23 52 61 70 106 110 34 85 106 111 119 158 174 70 21 351 1 3 349 86 112 76 25 20 34 55 64 74
116 78 62 53 56 68 78 91 108 111 123 133 112 95 81 36 16 336 325 330 297 11 26 36 44 48 75 88 59 42 103 141 161 135 126 235 167 121 84 36 63 130 247 295 321 66 54 56 68 61 50 77 189 282 337 22 44 18 9 19 51 49 41 81 103 89 82 105 112 98 136 127 47 339 323 331 329 315 217 116 96 24 18 32 46 49 60
112 78 62 57 59 72 88 98 111 114 119 126 101 69 46 38 22 353 341 341 8 53 40 43 47 39 40 79 50 15 33 60 106 121 157 200 143 119 114 97 99 116 314 329 33 58 53 70 79 62 46 26 71 3 2 23 32 359 350 4 32 24 11 49 71 56 83 104 104 71 78 68 353 310 310 316 312 289 143 156 124 45 30 37 47 39 32
112 80 62 59 61 76 95 105 115 119 120 117 89 68 64 57 38 15 1 357 50 53 40 48 51 37 27 51 56 22 19 19 1 336 175 144 114 116 129 138 131 98 341 21 67 69 54 55 72 86 69 4 30 77 40 24 26 358 342 349 24 22 357 44 81 72 56 86 106 89 105 152 303 306 315 318 302 182 143 232 114 69 54 56 65 64 66
117 85 65 61 65 79 99 109 114 118 120 111 86 81 79 65 42 25 30 62 87 70 47 53 60 48 42 50 46 32 31 43 42 27 7 6 31 79 98 91 70 42 28 40 64 84 68 32 49 95 78 23 29 62 55 44 24 0 7 18 23 4 335 11 62 58 34 67 102 108 121 12 323 313 324 346 332 191 109 86 93 84 79 82 81 83 90
122 90 70 67 71 79 96 113 115 110 110 105 90 88 85 65 38 27 51 83 84 68 51 53 63 63 56 54 47 37 36 45 44 33 347 323 358 40 76 61 30 28 32 35 49 74 71 32 352 64 80 49 24 59 75 73 50 19 23 50 35 346 338 49 52 12 46 78 68 84 134 345 345 334 327 6 26 135 114 97 96 94 95 95 90 90 94
126 94 77 75 76 81 95 112 116 109 103 99 93 89 83 66 49 44 73 100 90 74 58 59 68 69 60 56 54 50 52 53 42 23 2 4 16 45 128 218 303 34 57 75 89 89 99 128 314 44 88 109 42 89 115 116 71 32 32 75 46 330 320 114 110 321 28 82 60 69 145 14 30 53 74 56 81 119 118 106 103 102 102 102 98 95 97
131 102 86 80 80 87 100 109 113 110 100 96 95 91 81 71 64 64 90 105 96 89 83 77 75 74 68 59 51 50 61 62 51 39 33 33 48 83 118 133 73 67 81 117 114 111 121 126 133 99 94 82 85 87 75 87 89 29 18 36 50 47 68 82 75 50 62 77 104 117 97 73 68 76 82 81 89 103 108 107 110 110 109 108 105 103 104
137 109 93 88 87 91 100 107 107 103 99 99 100 96 90 82 75 74 91 103 99 94 90 85 79 74 70 64 54 47 54 58 54 53 53 50 61 80 84 75 68 69 77 102 115 136 165 156 120 115 112 99 100 90 62 57 71 44 27 25 64 112 112 84 73 96 89 82 98 109 95 86 83 84 85 88 92 97 101 106 109 112 112 110 108 109 110
144 118 100 99 98 93 99 109 104 95 98 110 110 105 102 99 95 95 99 103 99 91 82 75 72 70 69 70 67 59 54 52 53 59 65 71 85 88 77 77 86 79 67 81 124 134 135 135 98 87 101 111 108 103 86 78 81 145 98 46 17 98 109 94 99 135 112 84 105 112 104 101 98 94 93 93 93 95 99 103 108 112 113 112 113 114 113
152 127 107 107 106 96 102 114 107 99 106 117 117 114 113 114 117 120 118 108 102 100 89 58 60 72 78 77 73 67 61 57 57 62 71 82 90 90 80 78 75 56 50 65 121 113 100 104 94 82 90 96 96 113 117 115 168 179 129 117 250 103 97 91 93 100 102 123 134 126 117 112 108 105 106 106 103 102 101 101 106 111 112 114 115 115 114
158 138 116 115 113 105 111 117 109 105 114 118 112 107 111 117 123 125 121 112 104 103 104 82 79 84 83 76 72 70 71 71 67 68 71 76 78 75 73 78 75 64 68 81 90 86 79 72 64 67 74 76 77 91 115 116 137 144 104 120 148 130 113 107 107 104 107 126 133 127 117 110 110 114 117 118 116 114 112 111 114 115 115 118 118 113 109
158 147 132 127 124 116 117 118 110 108 117 116 101 95 101 104 94 89 97 111 112 103 108 122 102 90 77 72 74 75 77 80 80 78 74 67 65 66 70 83 91 84 79 82 82 76 69 65 70 73 79 79 74 66 69 90 104 101 88 107 114 114 121 123 116 117 116 117 126 125 115 115 128 132 132 130 126 123 121 123 125 124 125 130 131 126 116
155 151 143 137 135 129 124 120 112 111 121 119 105 98 94 80 66 71 78 99 117 119 120 113 103 91 73 68 73 81 85 88 90 86 77 67 66 67 69 79 92 90 82 80 79 71 62 68 79 81 86 87 81 66 64 74 76 63 69 100 111 123 137 126 105 101 107 111 118 120 117 129 145 146 142 139 137 134 134 135 135 136 139 140 137 136 136
148 145 145 144 144 141 135 129 120 119 123 119 107 101 97 84 74 79 85 97 109 114 112 102 88 75 68 72 77 83 89 91 90 85 78 74 74 73 73 79 86 88 85 82 79 71 69 77 77 78 95 104 100 85 72 71 67 62 65 74 89 106 116 114 108 107 110 113 115 111 106 117 136 143 141 138 137 138 142 144 141 141 146 147 140 137 140
140 139 145 147 147 148 145 141 139 134 125 117 112 112 114 115 105 92 93 103 113 116 111 101 81 61 66 75 81 86 91 94 90 80 76 76 78 79 82 84 87 91 91 89 86 82 81 82 77 83 103 112 105 88 93 88 82 77 72 74 82 94 102 106 108 107 106 106 106 100 95 100 113 122 124 124 124 128 141 151 146 139 143 145 138 129 121
132 132 140 147 153 155 150 150 153 138 93 76 114 123 126 132 119 103 99 103 112 115 110 103 96 78 64 70 87 98 99 95 85 75 73 76 80 86 91 91 90 94 94 90 88 81 66 64 72 82 97 103 99 82 92 98 90 86 84 83 87 93 97 101 106 108 107 107 110 114 114 112 112 112 110 111 115 119 128 137 138 140 147 146 135 128 121
126 125 132 141 152 158 156 158 156 119 67 60 90 115 132 141 130 116 110 107 110 116 116 109 95 85 59 58 90 107 108 98 87 79 75 76 79 85 91 89 84 86 85 79 76 67 55 62 69 74 89 100 102 86 66 81 91 103 100 97 98 102 106 112 119 122 124 126 129 129 123 116 117 122 126 131 134 128 123 123 127 132 138 137 133 130 121
134 130 127 128 138 152 160 159 142 106 81 78 89 110 135 146 141 128 120 118 120 124 126 120 103 129 136 84 105 122 121 106 98 90 82 86 91 94 97 94 86 83 82 76 74 75 71 72 76 80 91 99 100 87 64 90 106 113 114 115 118 121 126 133 136 134 134 135 130 120 113 115 123 128 128 131 133 130 127 129 132 131 126 123 128 129 125
145 142 136 129 126 133 142 143 134 111 88 76 80 115 143 148 142 128 118 122 128 133 131 120 101 103 122 69 139 149 149 93 106 104 94 101 107 103 101 99 90 84 85 89 92 90 82 81 86 88 92 95 93 85 91 110 115 119 123 131 139 142 143 141 130 117 116 121 120 115 116 122 122 115 116 126 133 133 130 127 127 127 120 111 103 87 77
141 142 141 131 124 121 125 135 141 122 85 75 103 135 147 149 142 126 103 94 79 63 128 125 115 112 114 87 140 171 180 94 112 121 125 126 119 108 105 102 92 95 109 108 103 99 96 98 98 95 103 108 94 78 134 136 132 133 138 147 149 143 132 122 115 110 111 118 122 125 129 129 125 128 145 149 139 125 117 117 115 107 100 99 87 52 46
135 137 137 130 124 119 113 114 118 102 109 143 153 143 149 153 147 123 70 55 27 356 7 138 145 159 153 118 107 127 120 112 115 123 133 136 122 110 112 105 81 121 128 114 100 105 126 125 116 104 113 108 77 104 141 145 144 147 153 154 143 128 118 117 123 130 135 138 142 146 146 141 142 152 153 137 122 107 100 109 109 88 76 82 82 54 38
130 132 133 132 126 112 95 89 85 93 115 134 135 133 144 149 132 87 59 47 2 334 338 5 185 156 136 129 134 124 116 130 133 122 116 119 110 104 109 102 66 97 106 90 81 111 133 136 125 86 83 117 114 117 129 135 137 140 141 134 123 121 125 128 129 135 144 153 160 161 157 150 148 147 133 121 119 107 89 93 102 92 82 84 83 68 44
131 133 133 132 123 101 97 106 111 115 125 129 124 127 143 149 119 73 59 332 299 281 301 328 174 136 124 120 129 127 127 152 149 117 98 116 113 97 98 100 86 67 84 72 70 88 92 97 90 71 102 126 124 121 126 132 132 132 134 133 131 134 142 147 148 153 158 154 139 131 129 126 125 122 114 114 120 117 104 103 117 124 121 95 65 54 30
137 137 133 121 94 83 96 126 132 132 134 130 117 116 138 144 65 296 272 304 294 221 309 329 126 128 123 115 101 101 113 135 132 117 93 94 91 52 104 96 50 76 94 89 44 68 64 48 55 65 81 107 110 115 126 130 122 113 122 136 139 140 143 143 139 137 131 116 100 98 103 104 106 103 89 90 107 117 122 117 106 107 113 37 20 19 13
129 117 96 93 97 89 93 130 141 143 143 136 117 112 158 152 277 264 267 314 330 13 1 12 102 118 125 130 122 92 59 70 135 144 130 80 54 115 133 126 134 106 98 171 162 99 87 77 81 85 104 108 103 109 119 120 109 105 117 128 126 122 123 122 115 111 110 107 106 119 114 100 97 98 76 64 74 80 81 85 78 62 54 55 51 52 54
103 60 84 111 114 114 127 138 143 146 151 154 264 242 147 228 259 180 128 238 328 47 357 3 101 115 129 141 139 111 51 54 103 126 122 84 53 91 94 122 147 111 83 190 165 129 97 100 108 165 160 133 117 111 112 112 110 115 125 127 113 109 113 111 100 105 120 118 115 123 125 110 97 92 83 72 68 59 48 49 60 63 68 69 57 53 49
107 109 113 119 127 137 144 147 145 123 15 44 13 313 305 351 311 152 118 279 165 122 37 23 82 97 111 124 126 112 71 60 85 107 106 51 58 113 98 122 133 91 152 172 156 136 113 128 148 191 149 135 130 129 128 128 130 129 130 131 123 118 124 119 101 100 114 112 102 102 113 116 95 70 57 50 62 69 59 39 40 47 31 356 348 353 352
112 108 111 121 135 146 154 169 213 311 23 44 41 40 49 18 296 250 281 250 189 146 110 104 106 103 103 110 112 99 74 63 73 90 97 105 153 107 64 53 86 143 185 162 141 140 161 153 168 167 148 142 142 144 142 143 144 141 140 148 151 145 141 132 112 99 103 104 92 87 96 105 89 46 31 8 3 61 45 15 9 8 354 355 6 0 328
122 114 119 133 141 147 166 234 83 92 67 55 156 174 213 241 232 211 191 205 200 158 140 145 147 127 102 100 105 96 81 70 56 57 93 126 115 56 72 99 180 180 159 143 125 166 165 138 137 146 147 148 151 153 152 153 153 149 150 152 142 133 134 134 125 115 113 113 108 101 95 91 75 56 47 25 17 47 34 20 21 19 355 349 353 336 319
122 119 125 115 101 134 167 285 298 230 231 216 178 167 170 186 207 205 186 179 168 153 157 169 165 133 108 103 111 123 120 96 71 59 129 124 55 26 117 150 157 136 127 170 193 145 119 97 132 142 148 155 159 158 156 155 151 148 150 146 129 117 123 136 137 135 130 127 129 127 106 84 84 51 7 349 347 358 354 344 339 335 332 329 322 314 315
124 142 129 85 0 244 180 133 231 214 180 191 213 224 221 215 214 188 157 155 158 160 164 161 139 121 113 110 123 143 151 133 116 133 159 107 87 328 272 127 127 128 127 248 191 152 137 150 150 151 156 161 158 153 150 149 148 150 155 154 149 144 137 130 123 118 117 121 124 122 110 75 355 334 338 353 359 347 334 328 326 327 331 333 326 308 296
163 171 147 102 309 247 229 233 227 224 221 218 221 224 209 183 168 146 136 142 151 146 136 127 122 123 128 137 141 143 148 135 110 99 82 102 114 306 337 36 112 154 170 199 201 165 142 154 158 158 158 154 149 147 149 152 157 163 160 154 154 156 148 139 136 130 122 111 103 105 97 312 322 335 335 343 353 345 319 302 314 332 337 337 329 315 301
184 181 175 170 163 180 226 242 236 245 253 241 216 168 127 121 116 115 129 143 143 129 123 124 127 134 141 144 131 108 93 81 67 22 27 79 97 44 37 48 282 267 189 194 189 139 146 157 159 155 149 144 143 149 156 158 159 162 160 156 157 158 151 153 170 169 151 122 110 111 311 299 330 43 355 336 348 353 325 313 324 337 341 340 338 331 317
242 209 219 246 215 218 243 248 244 252 254 232 179 141 121 105 97 102 120 129 123 123 131 138 143 148 135 123 107 75 70 84 104 350 30 65 87 115 138 190 205 204 233 248 147 135 145 153 151 145 143 144 146 150 154 151 147 146 146 145 146 147 147 155 170 174 188 221 167 126 323 307 297 316 323 330 351 357 346 339 339 336 329 327 327 318 309
244 238 240 243 232 235 249 251 246 253 264 197 142 129 118 108 106 114 125 117 106 115 131 141 145 135 106 100 89 67 98 130 129 123 112 110 149 191 182 159 184 221 258 233 139 140 144 148 145 141 143 150 152 150 148 147 145 145 146 144 143 151 163 170 166 151 152 199 214 263 315 322 303 276 305 330 346 344 337 340 346 328 288 275 288 295 291
252 255 247 244 245 253 269 270 252 185 185 258 135 121 118 116 116 120 124 116 111 115 129 151 162 94 76 89 102 131 136 129 116 119 152 169 183 165 154 190 233 235 130 120 133 141 144 145 145 144 144 148 150 147 146 146 146 147 155 163 168 172 176 178 182 188 193 200 225 268 305 335 42 290 313 323 321 313 315 323 324 294 261 271 308 320 306
250 248 252 258 258 259 268 276 261 188 172 185 145 120 119 120 121 124 127 131 137 144 158 173 167 87 72 130 146 94 97 123 127 133 173 192 192 177 188 211 214 144 114 116 129 140 142 142 144 145 143 142 142 141 143 148 152 155 163 168 167 167 173 179 183 186 191 196 220 255 292 321 328 316 320 326 325 327 338 349 348 264 259 301 339 349 342